This is the latest recevied weather packets stored in our database for station/object KI4HRG. If no packets are shown the sender has not sent any weather packets the latest 10 day(s).
| Time | Temp. | Humidity | Pressure | Rain* | Wind** | Luminosity | Snow |
|---|---|---|---|---|---|---|---|
| 1788114982 | 32.22° C | 64% | 1019.2 hPa | 0 mm | - | 641 W/m² | - |
| 1788114678 | 32.22° C | 63% | 1019.2 hPa | 0 mm | - | 272 W/m² | - |
| 1788114373 | 31.67° C | 66% | 1019.4 hPa | 0 mm | - | 646 W/m² | - |
| 1788114069 | 32.22° C | 63% | 1019.5 hPa | 0 mm | - | 199 W/m² | - |
| 1788113765 | 32.22° C | 64% | 1019.6 hPa | 0 mm | - | 142 W/m² | - |
| 1788113465 | 32.22° C | 65% | 1019.7 hPa | 0 mm | - | 775 W/m² | - |
| 1788113164 | 31.67° C | 66% | 1019.8 hPa | 0 mm | - | 706 W/m² | - |
| 1788112858 | 31.67° C | 66% | 1020 hPa | 0 mm | - | 538 W/m² | - |
| 1788112557 | 31.11° C | 65% | 1019.9 hPa | 0 mm | - | 767 W/m² | - |
| 1788112252 | 32.22° C | 63% | 1019.9 hPa | 0 mm | - | 537 W/m² | - |
| 1788111948 | 31.67° C | 64% | 1020.2 hPa | 0 mm | - | 746 W/m² | - |
| 1788111643 | 32.22° C | 62% | 1020.1 hPa | 0 mm | - | 667 W/m² | - |
| 1788111339 | 32.22° C | 63% | 1020.1 hPa | 0 mm | - | 653 W/m² | - |
| 1788111033 | 32.22° C | 64% | 1020.1 hPa | 0 mm | - | 739 W/m² | - |
| 1788110730 | 32.22° C | 64% | 1020.3 hPa | 0 mm | - | 766 W/m² | - |
| 1788110426 | 31.67° C | 65% | 1020.2 hPa | 0 mm | - | 737 W/m² | - |
| 1788110127 | 31.67° C | 67% | 1020.4 hPa | 0 mm | - | 178 W/m² | - |
| 1788109826 | 30.56° C | 68% | 1020.4 hPa | 0 mm | - | 721 W/m² | - |
| 1788109521 | 31.11° C | 69% | 1020.6 hPa | 0 mm | - | 167 W/m² | - |
| 1788109220 | 31.67° C | 68% | 1020.7 hPa | 0 mm | - | 771 W/m² | - |
| 1788108915 | 31.11° C | 70% | 1020.6 hPa | 0 mm | - | 186 W/m² | - |
| 1788108611 | 31.11° C | 71% | 1020.6 hPa | 0 mm | - | 849 W/m² | - |
| 1788108307 | 31.11° C | 70% | 1020.6 hPa | 0 mm | - | 824 W/m² | - |
| 1788108003 | 30° C | 73% | 1020.7 hPa | 0 mm | - | 411 W/m² | - |
| 1788107700 | 29.44° C | 73% | 1020.6 hPa | 0 mm | - | 819 W/m² | - |
* Rain latest hour (hover to see other rain measurements)
** Current wind speed in m/s (hover to see current wind gust speed)